x

Cape Elizabeth- 45nm Nw Of Aberdeen, Wa (46041) Wave Buoy

8:50 - Wed 23rd Apr 2014 All times are PDT. -7 hours from GMT.

  • Sig Wave height 10.5ft
  • Peak Period 12s
  • Average Period 8s
  • Wind
    4mph, 9mph gusts
  • Sea Temp 49°f
  • Sea Pressure 1010.4mb
  • Cape Elizabeth- 45nm Nw Of Aberdeen, Wa
  • Cape Elizabeth- 45nm Nw Of Aberdeen, Wa

More Historic Weather Station data

Upgrade to MSW Pro to gain access to the past 30 days of data for over 8000 Wavebouys and Weather Stations around the globe.

Join Pro

Comparision Forecast

View Surf forecast
   
Mi 04/23 8:50 10.5ft 12s 8s 4 9 mph 1010.4mb 49f
7:50 11ft 13s 8s 4 7 mph 1010.4mb 49f
6:50 10ft 13s 8s 9 11 mph 1010.4mb 49f
5:50 9ft 13s 7s 9 13 mph 1010.2mb 49f
4:50 9ft 14s 7s 13 18 mph 1010.1mb 49f
3:50 9ft 13s 7s 18 20 mph 1010.1mb 50f
2:50 9ft 14s 8s 11 16 mph 1010.1mb 50f
1:50 11ft 14s 8s 18 22 mph 1010mb 50f
12:50 10ft 13s 8s 18 20 mph 1009.9mb 50f
Di 04/22 11:50 11.5ft 13s 8s 18 20 mph 1009.8mb 49f
10:50 11.5ft 14s 9s 16 18 mph 1009.4mb 49f
9:50 10.5ft 13s 8s 16 18 mph 1009.6mb 49f
8:50 9.5ft 13s 7s 16 18 mph 1009.3mb 49f
7:50 10ft 13s 7s 16 22 mph 1009.1mb 50f
6:50 8.5ft 13s 6s 18 22 mph 1009.3mb 50f
5:50 8.5ft 13s 7s 20 25 mph 1009.5mb 50f
4:50 8ft 14s 7s 18 22 mph 1010.2mb 50f
3:50 8ft 12s 7s 20 25 mph 1011mb 50f
2:50 8.5ft 13s 8s 22 29 mph 1011.3mb 50f
1:50 7ft 12s 7s 18 22 mph 1011.2mb 50f
12:50 8.5ft 12s 9s 13 16 mph 1011.5mb 50f
11:50 9ft 13s 9s 13 16 mph 1011.8mb 50f
10:50 9ft 13s 9s 11 13 mph 1011.7mb 49f
9:50 9ft 13s 9s 9 11 mph 1011.7mb 49f
8:50 9.5ft 12s 9s 7 11 mph 1011.7mb 49f
7:50 9.5ft 12s 9s 9 11 mph 1011.9mb 49f
6:50 9ft 13s 8s 7 9 mph 1011.8mb 49f
5:50 9ft 11s 8s 11 16 mph 1011.7mb 49f
4:50 8.5ft 11s 8s 13 16 mph 1011.7mb 49f
3:50 9ft 11s 8s 13 16 mph 1011.8mb 49f
2:50 9.5ft 12s 8s 13 18 mph 1012mb 49f
1:50 9.5ft 12s 9s 16 18 mph 1011.9mb 49f
12:50 9.5ft 13s 9s 16 18 mph 1012.1mb 49f
Mo 04/21 11:50 9.5ft 14s 9s 16 20 mph 1012.1mb 49f
10:50 8.5ft 13s 8s 13 16 mph 1012.4mb 49f
9:50 11ft 13s 9s 13 16 mph 1012.5mb 49f
8:50 10.5ft 14s 9s 11 13 mph 1012.8mb 50f
7:50 10ft 14s 9s 11 13 mph 1013mb 50f
6:50 11ft 13s 9s 11 13 mph 1013.3mb 50f
5:50 9.5ft 14s 8s 13 18 mph 1013.8mb 50f
4:50 9.5ft 13s 9s 13 16 mph 1014.4mb 50f
3:50 9.5ft 14s 9s 11 13 mph 1014.3mb 50f
2:50 12ft 13s 10s 11 13 mph 1014.5mb 50f
1:50 12ft 12s 10s 7 11 mph 1015.4mb 50f
12:50 12ft 12s 10s 7 9 mph 1015.6mb 50f
11:50 12ft 13s 10s 7 9 mph 1016.1mb 49f
10:50 12ft 14s 10s 4 9 mph 1016.4mb 49f
9:50 13.5ft 13s 10s 7 9 mph 1016.4mb 50f
8:50 14ft 14s 11s 9 11 mph 1016.7mb 50f
7:50 11ft 14s 10s 9 11 mph 1017mb 50f
6:50 9ft 12s 9s 7 9 mph 1017.1mb 50f
5:50 11ft 14s 10s 7 9 mph 1017.4mb 51f
4:50 10.5ft 14s 9s 9 11 mph 1017.8mb 51f
3:50 11ft 14s 9s 7 9 mph 1018.3mb 51f
2:50 11.5ft 14s 9s 4 9 mph 1018.7mb 51f
1:50 13.5ft 14s 10s 9 13 mph 1019.2mb 51f
12:50 14ft 14s 9s 11 13 mph 1019.2mb 51f
So 04/20 11:50 15ft 14s 10s 18 22 mph 1019mb 51f
10:50 14ft 14s 9s 20 22 mph 1019.3mb 51f
9:50 14ft 14s 9s 18 22 mph 1019.8mb 51f
8:50 15ft 15s 10s 18 22 mph 1019.6mb 51f
7:50 16ft 14s 11s 16 20 mph 1020mb 51f
6:50 13ft 15s 9s 16 18 mph 1020.5mb 51f
5:50 13ft 14s 9s 16 18 mph 1021.1mb 51f
3:50 16.5ft 15s 10s 18 22 mph 1021.7mb 51f
2:50 18ft 15s 11s 18 25 mph 1022.5mb 51f
1:50 19.5ft 16s 11s 20 25 mph 1022.6mb 51f
12:50 18ft 16s 11s 20 27 mph 1023mb 50f
11:50 17.5ft 15s 10s 20 27 mph 1023.4mb 50f
10:50 17.5ft 16s 11s 20 27 mph 1023.3mb 50f
9:50 18.5ft 16s 11s 20 25 mph 1023.3mb 50f
8:50 19ft 16s 11s 20 25 mph 1023.2mb 50f
7:50 20.5ft 17s 11s 16 22 mph 1023mb 50f
6:50 22.5ft 17s 12s 16 18 mph 1022.7mb 50f
5:50 16.5ft 17s 10s 13 16 mph 1022.6mb 50f
4:50 18.5ft 16s 11s 11 16 mph 1022.9mb 50f
3:50 18.5ft 16s 11s 7 9 mph 1022.8mb 50f
2:50 18ft 16s 10s 7 13 mph 1022.7mb 50f
1:50 19.5ft 16s 11s 16 20 mph 1022.2mb 50f
12:50 19ft 15s 11s 13 18 mph 1021.9mb 50f
Sa 04/19 11:50 18.5ft 15s 11s 13 18 mph 1021.3mb 50f
10:50 17.5ft 16s 11s 13 18 mph 1020.7mb 51f
9:50 13ft 16s 9s 13 18 mph 1020.1mb 51f
8:50 10.5ft 8s 7s 18 22 mph 1018.7mb 51f
7:50 9.5ft 11s 7s 18 22 mph 1017.5mb 51f
6:50 9ft 9s 7s 18 20 mph 1016.6mb 51f
5:50 10ft 8s 7s 20 25 mph 1015.3mb 51f
4:50 9.5ft 8s 7s 22 25 mph 1013.9mb 51f